This is the latest recevied weather packets stored in our database for station/object DR0T. If no packets are shown the sender has not sent any weather packets the latest 1 day(s).
| Time | Temp. | Humidity | Pressure | Rain* | Wind** | Luminosity | Snow |
|---|---|---|---|---|---|---|---|
| 1778028154 | 10.56° C | 99% | 1007.8 hPa | 0 mm | 3.13 m/s, 240° | - | - |
| 1778027853 | 10.56° C | 99% | 1007.9 hPa | 0 mm | 3.13 m/s, 240° | - | - |
| 1778027551 | 11.11° C | 99% | 1008 hPa | 0 mm | 2.68 m/s, 244° | - | - |
| 1778027256 | 11.11° C | 99% | 1008 hPa | 0 mm | 3.13 m/s, 247° | - | - |
| 1778026949 | 11.11° C | 99% | 1008 hPa | 0 mm | 3.13 m/s, 244° | - | - |
| 1778026647 | 11.11° C | 99% | 1008.1 hPa | 0 mm | 3.13 m/s, 247° | - | - |
| 1778026346 | 11.11° C | 99% | 1008.1 hPa | 0 mm | 2.68 m/s, 243° | - | - |
| 1778026045 | 11.11° C | 99% | 1008.1 hPa | 0 mm | 2.68 m/s, 245° | - | - |
| 1778025748 | 11.11° C | 99% | 1008.1 hPa | 0 mm | 3.13 m/s, 249° | - | - |
| 1778025448 | 11.11° C | 99% | 1008.2 hPa | 0 mm | 3.58 m/s, 251° | - | - |
| 1778025141 | 11.11° C | 99% | 1008.2 hPa | 0 mm | 3.13 m/s, 246° | - | - |
| 1778024840 | 11.11° C | 99% | 1008.3 hPa | 0 mm | 2.68 m/s, 237° | - | - |
| 1778024545 | 11.11° C | 99% | 1008.3 hPa | 0 mm | 3.13 m/s, 245° | - | - |
| 1778024238 | 11.11° C | 99% | 1008.3 hPa | 0 mm | 3.13 m/s, 247° | - | - |
| 1778023937 | 11.11° C | 99% | 1008.4 hPa | 0 mm | 3.13 m/s, 241° | - | - |
| 1778023655 | 11.11° C | 99% | 1008.2 hPa | 0 mm | 2.68 m/s, 247° | - | - |
| 1778023354 | 11.11° C | 99% | 1008.3 hPa | 0 mm | 2.68 m/s, 249° | - | - |
| 1778023053 | 11.11° C | 99% | 1008.4 hPa | 0 mm | 2.24 m/s, 248° | - | - |
| 1778022758 | 11.11° C | 99% | 1008.4 hPa | 0 mm | 2.24 m/s, 244° | - | - |
| 1778022451 | 11.11° C | 99% | 1008.5 hPa | 0 mm | 2.24 m/s, 244° | - | - |
| 1778022149 | 11.11° C | 99% | 1008.3 hPa | 0 mm | 2.24 m/s, 241° | - | - |
| 1778021848 | 11.11° C | 99% | 1008.4 hPa | 0 mm | 1.79 m/s, 247° | - | - |
| 1778021547 | 11.11° C | 99% | 1008.4 hPa | 0 mm | 1.79 m/s, 241° | - | - |
| 1778021247 | 11.11° C | 99% | 1008.4 hPa | 0 mm | 1.79 m/s, 234° | - | - |
| 1778020944 | 10.56° C | 99% | 1008.4 hPa | 0.25 mm | 1.34 m/s, 234° | - | - |
* Rain latest hour (hover to see other rain measurements)
** Current wind speed in m/s (hover to see current wind gust speed)